Miscellaneous Local Product
Issued by NWS Hastings, NE

Home | Current Version | Previous Version | Graphics & Text | Print | Product List | Glossary On
Versions: 1 2 3 4 5 6 7 8 9 10 11 12 13 14 15 16 17 18 19 20 21 22 23 24 25 26 27 28 29 30 31 32 33 34 35 36 37 38 39 40 41 42 43 44 45 46 47 48 49 50
000
AXUS43 KGID 162102
MISGRI

GID CWA HOURLY WEATHER ROUNDUP
NATIONAL WEATHER SERVICE HASTINGS NE
300 PM CST THU NOV 16 2017

NOTE: "FAIR" INDICATES FEW OR NO CLOUDS BELOW 12,000 FEET WITH NO
SIGNIFICANT WEATHER AND/OR OBSTRUCTIONS TO VISIBILITY.

...SOUTH CENTRAL NEBRASKA...

CITY           SKY/WX    TMP DP  RH WIND       PRES   REMARKS
GRAND ISLAND   SUNNY     55  33  43 S22G32    29.87F
KEARNEY        SUNNY     58  33  39 S23G31    29.85F
HASTINGS       SUNNY     55  32  41 S17G31    29.87F
ORD            SUNNY     56  31  38 S20G35    29.81F
YORK           SUNNY     54  32  43 S22G32    29.90F
AURORA         SUNNY     56  31  38 S18G28    29.88F
LEXINGTON      SUNNY     60  32  34 S24       29.81F
HOLDREGE       SUNNY     58  35  42 S22G32    29.83F
HEBRON         SUNNY     58  30  34 S18G24    29.93F

...NEBRASKA PANHANDLE...

CITY           SKY/WX    TMP DP  RH WIND       PRES   REMARKS
CHADRON        CLOUDY    77  24  14 SW24G31   29.57F
ALLIANCE       CLOUDY    62  32  32 SE17      29.66F
SCOTTSBLUFF    SUNNY     76  21  12 S21       29.64F
SIDNEY         CLOUDY    68  24  19 S10       29.72F

...WESTERN AND NORTH CENTRAL NEBRASKA...

CITY           SKY/WX    TMP DP  RH WIND       PRES   REMARKS
VALENTINE      SUNNY     62  29  28 S23G31    29.64F
AINSWORTH      SUNNY     58  32  38 S25       29.69F
ONEILL         SUNNY     55  33  43 S28G35    29.78S
BROKEN BOW     SUNNY     58  32  37 S24G33    29.79F
NORTH PLATTE   SUNNY     60  33  36 S17       29.76F
MCCOOK         SUNNY     65  34  31 S13G26    29.78F

...EASTERN NEBRASKA...

CITY           SKY/WX    TMP DP  RH WIND       PRES   REMARKS
NORFOLK        SUNNY     52  28  39 SE22G32   29.86F
SO SIOUX CITY  SUNNY     47  27  45 SE17G23   29.98F
TEKAMAH        SUNNY     48  27  44 SE20      30.00F
COLUMBUS       SUNNY     54  29  38 S21G28    29.90F
ALBION         CLOUDY    55  31  40 S24G35    29.86F
OMAHA EPPLEY   MOSUNNY   49  28  44 S17       30.02F
OFFUTT AFB     SUNNY     48  28  44 SE13      30.01F
MILLARD        SUNNY     49  30  47 SE16      30.00F
LINCOLN        SUNNY     54  29  38 SE18      29.97F
NEBRASKA CITY  MOSUNNY   48  31  50 SE13G18   30.01F
BEATRICE       SUNNY     55  32  42 S16       29.97F
FALLS CITY     MOSUNNY   51  30  44 SE12      30.04F

...NORTHERN KANSAS...

CITY           SKY/WX    TMP DP  RH WIND       PRES   REMARKS
GOODLAND       SUNNY     65  30  27 S18       29.77F
HILL CITY      LGT RAIN  64  35  34 S20G30    29.84F
NORTON         CLEAR     63  27  25 S21G26    29.81F
PHILLIPSBURG   SUNNY     64  34  32 S17G26    29.86F
SMITH CENTER   SUNNY     61  34  36 S20G26    29.89F
HAYS           SUNNY     64  37  36 S25G32    29.86F
RUSSELL        SUNNY     61  35  37 S24G32    29.88F
CONCORDIA      SUNNY     58  32  37 S21       29.94F
SALINA         SUNNY     63  33  32 S17G28    29.95F
TOPEKA         SUNNY     57  32  38 SE12      30.05F



USA.gov is the U.S. government's official web portal to all federal, state and local government web resources and services.